Flag for Germany Weather past 2 weeks in Böblingen, Baden-Württemberg, Germany

Now
63 °F

Partly sunny.


Feels Like: 63 °F
Forecast: 49 / 67 °F
Wind: 6 mph from Southwest

Location: Stuttgart-Echterdingen

Current Time: May 28, 2015 at 1:15:50 PM

Latest Report: May 28, 2015 at 12:20 PM


Visibility: N/A

Pressure: 30.07 "Hg

Humidity: 45%

Dew point: 41 °F

Location of BöblingenLocation

Historic Weather in Böblingen — Graph

°F

Böblingen temperature yesterday

Maximum temperature yesterday: 57 °F (at 3:50 PM)
Minimum temperature yesterday: 46 °F (at 4:50 AM)
Average temperature yesterday: 52 °F

Past Weeks' High & Low Weather Summary

 TemperatureHumidityPressure
High73 °F (May 13, 2:50 PM)100% (May 15, 4:20 AM)30.30 "Hg (May 15, 4:20 AM)
Low37 °F (May 22, 5:50 AM)25% (May 18, 6:20 PM)29.74 "Hg (May 18, 6:20 PM)
Average56 °F70%30.05 "Hg
* Reported May 13 12:20 PM — May 28 12:20 PM, Böblingen, Weather by CustomWeather, © 2015

Note: Actual official high and low records may vary slightly from our data, if they occured in-between our weather recording intervals... More about our weather records

Advertising

Böblingen weather history for previous 24 hours

 ConditionsComfort  
Time TempWeatherWind HumidityBarometerVisibility
12:20 PM
Thu, May 28
63 °FPartly sunny.6 mph45%30.07 "HgN/A
11:50 AM61 °FPartly sunny.6 mph52%30.07 "HgN/A
11:20 AM61 °FPartly sunny.6 mph52%30.07 "HgN/A
10:50 AM59 °FPartly sunny.5 mph59%30.09 "HgN/A
10:20 AM59 °FPartly sunny.2 mph59%30.09 "HgN/A
9:50 AM55 °FSunny.2 mph67%30.09 "Hg10 mi
9:20 AM54 °FSunny.2 mph72%30.09 "Hg10 mi
8:50 AM52 °FSunny.2 mph77%30.09 "Hg10 mi
8:20 AM50 °FSunny.2 mph82%30.09 "Hg10 mi
7:50 AM46 °FSunny.1 mph93%30.09 "Hg10 mi
7:20 AM45 °FSunny.1 mph93%30.09 "Hg10 mi
6:50 AM41 °FSunny.2 mph100%30.09 "Hg10 mi
6:20 AM39 °FFog.2 mph100%30.09 "HgN/A
5:50 AM39 °FClear.1 mph100%30.09 "Hg10 mi
5:20 AM39 °FClear.2 mph100%30.09 "Hg10 mi
4:50 AM39 °FChilly.2 mph93%30.09 "HgN/A
4:20 AM39 °FClear.2 mph93%30.12 "Hg10 mi
3:50 AM41 °FClear.1 mph93%30.12 "Hg10 mi
3:20 AM41 °FClear.1 mph93%30.12 "Hg10 mi
2:50 AM43 °FClear.2 mph87%30.12 "Hg10 mi
2:20 AM43 °FPassing clouds.3 mph87%30.12 "HgN/A
1:50 AM43 °FClear.2 mph93%30.15 "Hg10 mi
1:20 AM45 °FClear.1 mph87%30.15 "Hg10 mi
12:50 AM45 °FClear.2 mph87%30.15 "Hg10 mi
12:20 AM46 °FClear.1 mph82%30.18 "Hg10 mi
11:50 PM
Wed, May 27
48 °FClear.3 mph76%30.18 "Hg10 mi
11:20 PM50 °FClear.3 mph71%30.18 "Hg10 mi
10:50 PM50 °FClear.1 mph71%30.18 "Hg10 mi
10:20 PM50 °FClear.2 mph71%30.18 "Hg10 mi
9:50 PM52 °FSunny.3 mph62%30.18 "Hg10 mi
9:20 PM54 °FSunny.3 mph63%30.18 "Hg10 mi
8:50 PM54 °FScattered clouds.6 mph63%30.18 "HgN/A
8:20 PM55 °FScattered clouds.7 mph59%30.18 "HgN/A
7:50 PM55 °FPartly sunny.5 mph55%30.18 "HgN/A
7:20 PM55 °FPartly sunny.7 mph55%30.18 "HgN/A
6:50 PM57 °FScattered clouds.8 mph51%30.18 "HgN/A
6:20 PM57 °FScattered clouds.5 mph51%30.18 "HgN/A
5:50 PM57 °FScattered clouds.7 mph51%30.18 "HgN/A
5:20 PM57 °FScattered clouds.5 mph55%30.18 "HgN/A
4:50 PM57 °FScattered clouds.7 mph55%30.21 "HgN/A
4:20 PM57 °FScattered clouds.5 mph55%30.21 "HgN/A
3:50 PM57 °FScattered clouds.8 mph55%30.21 "HgN/A
3:20 PM55 °FBroken clouds.8 mph59%30.21 "HgN/A
2:50 PM55 °FBroken clouds.6 mph55%30.21 "HgN/A
2:20 PM55 °FBroken clouds.2 mph55%30.21 "HgN/A
1:50 PM55 °FBroken clouds.5 mph51%30.21 "HgN/A
1:20 PM54 °FBroken clouds.8 mph58%30.21 "HgN/A
Weather by CustomWeather, © 2015

See weather overviewHow to use our weather pages